| time (UTC) | temp F | wind direction | speed knots | gust knots | rain 1hr in | rain 24hr in | rain mn in | humidity % | barometer mb |
| 20260506215516 | 62 | 225 | 3.5 | 8.7 | 0.00 | 0.26 | 0.26 | 94 | 1005.7 |
| 20260506215016 | 62 | 180 | 2.6 | 7.8 | 0.00 | 0.26 | 0.26 | 94 | 1005.7 |
| 20260506214516 | 62 | 203 | 2.6 | 7.8 | 0.00 | 0.26 | 0.26 | 94 | 1005.6 |
| 20260506214030 | 62 | 203 | 2.6 | 8.7 | 0.00 | 0.26 | 0.26 | 94 | 1005.6 |
| 20260506213516 | 62 | 180 | 1.7 | 4.3 | 0.00 | 0.26 | 0.26 | 94 | 1005.7 |
| 20260506213016 | 63 | 203 | 2.6 | 11.3 | 0.00 | 0.26 | 0.26 | 94 | 1005.6 |
| 20260506212516 | 63 | 203 | 3.5 | 7.8 | 0.00 | 0.26 | 0.26 | 94 | 1005.5 |
| 20260506212016 | 63 | 225 | 1.7 | 6.1 | 0.01 | 0.26 | 0.26 | 94 | 1005.5 |
| 20260506211516 | 63 | 203 | 2.6 | 7.0 | 0.01 | 0.26 | 0.26 | 94 | 1005.4 |
| 20260506211017 | 63 | 203 | 3.5 | 7.8 | 0.01 | 0.26 | 0.26 | 95 | 1005.4 |
| 20260506210516 | 63 | 225 | 1.7 | 4.3 | 0.02 | 0.26 | 0.26 | 95 | 1005.4 |
| 20260506210016 | 63 | 203 | 1.7 | 6.1 | 0.02 | 0.26 | 0.26 | 95 | 1005.4 |
| 20260506205516 | 63 | 203 | 2.6 | 7.0 | 0.03 | 0.26 | 0.26 | 95 | 1005.5 |
| 20260506205016 | 63 | 180 | 2.6 | 8.7 | 0.03 | 0.26 | 0.26 | 95 | 1005.5 |
| 20260506204516 | 63 | 180 | 2.6 | 7.0 | 0.03 | 0.26 | 0.26 | 95 | 1005.5 |
| 20260506204016 | 62 | 180 | 2.6 | 7.8 | 0.03 | 0.26 | 0.26 | 95 | 1005.4 |
| 20260506203516 | 62 | 203 | 1.7 | 6.1 | 0.03 | 0.26 | 0.26 | 95 | 1005.4 |
| 20260506203016 | 62 | 203 | 2.6 | 6.1 | 0.03 | 0.26 | 0.26 | 95 | 1005.4 |
| 20260506202516 | 62 | 203 | 2.6 | 6.1 | 0.04 | 0.26 | 0.26 | 95 | 1005.3 |
| 20260506202016 | 62 | 180 | 2.6 | 9.6 | 0.03 | 0.25 | 0.25 | 95 | 1005.3 |
| 20260506201516 | 62 | 203 | 3.5 | 7.8 | 0.03 | 0.25 | 0.25 | 95 | 1005.3 |
| 20260506201016 | 62 | 225 | 2.6 | 7.8 | 0.03 | 0.25 | 0.25 | 95 | 1005.5 |
| 20260506200516 | 62 | 180 | 1.7 | 6.1 | 0.02 | 0.24 | 0.24 | 95 | 1005.6 |
| 20260506200016 | 62 | 225 | 3.5 | 9.6 | 0.03 | 0.24 | 0.24 | 95 | 1005.7 |
| 20260506195516 | 62 | 225 | 3.5 | 9.6 | 0.02 | 0.23 | 0.23 | 95 | 1005.8 |
| 20260506195016 | 62 | 225 | 3.5 | 7.8 | 0.02 | 0.23 | 0.23 | 95 | 1005.8 |
| 20260506194516 | 62 | 203 | 1.7 | 7.0 | 0.03 | 0.23 | 0.23 | 95 | 1006.0 |
| 20260506194016 | 62 | 203 | 3.5 | 8.7 | 0.03 | 0.23 | 0.23 | 95 | 1006.0 |
| 20260506193516 | 62 | 135 | 0.9 | 9.6 | 0.04 | 0.23 | 0.23 | 96 | 1005.9 |
| 20260506193016 | 62 | 203 | 3.5 | 8.7 | 0.05 | 0.23 | 0.23 | 95 | 1006.1 |
| 20260506192516 | 62 | 203 | 2.6 | 8.7 | 0.05 | 0.22 | 0.22 | 96 | 1006.1 |
| 20260506192016 | 62 | 158 | 2.6 | 7.0 | 0.06 | 0.22 | 0.22 | 96 | 1006.2 |
| 20260506191516 | 62 | 203 | 3.5 | 7.8 | 0.07 | 0.22 | 0.22 | 96 | 1006.2 |
| 20260506191016 | 62 | 203 | 4.3 | 8.7 | 0.07 | 0.22 | 0.22 | 96 | 1006.3 |
| 20260506190516 | 62 | 135 | 1.7 | 7.8 | 0.07 | 0.22 | 0.22 | 96 | 1006.3 |
| 20260506190016 | 62 | 203 | 1.7 | 4.3 | 0.06 | 0.21 | 0.21 | 96 | 1006.3 |
| 20260506185516 | 62 | 180 | 1.7 | 7.0 | 0.06 | 0.21 | 0.21 | 95 | 1006.4 |
| 20260506185016 | 62 | 203 | 2.6 | 6.1 | 0.06 | 0.21 | 0.21 | 95 | 1006.5 |
| 20260506184517 | 62 | 180 | 2.6 | 7.0 | 0.06 | 0.20 | 0.20 | 95 | 1006.5 |
| 20260506184016 | 61 | 203 | 2.6 | 7.0 | 0.06 | 0.20 | 0.20 | 95 | 1006.5 |
| 20260506183516 | 62 | 203 | 3.5 | 7.8 | 0.06 | 0.19 | 0.19 | 95 | 1006.5 |
| 20260506183016 | 61 | 180 | 2.6 | 7.0 | 0.06 | 0.18 | 0.18 | 94 | 1006.6 |
| 20260506182516 | 61 | 180 | 2.6 | 6.1 | 0.08 | 0.17 | 0.17 | 94 | 1006.7 |
| 20260506182016 | 61 | 180 | 3.5 | 7.8 | 0.09 | 0.16 | 0.16 | 94 | 1006.6 |
| 20260506181516 | 61 | 203 | 1.7 | 7.8 | 0.09 | 0.15 | 0.15 | 94 | 1006.7 |
| 20260506181016 | 62 | 135 | 1.7 | 7.8 | 0.09 | 0.15 | 0.15 | 94 | 1006.7 |
| 20260506180516 | 62 | 158 | 4.3 | 13.0 | 0.09 | 0.15 | 0.15 | 93 | 1006.8 |
| 20260506180016 | 62 | 203 | 4.3 | 11.3 | 0.09 | 0.15 | 0.15 | 93 | 1006.7 |
| 20260506175516 | 62 | 180 | 3.5 | 10.4 | 0.09 | 0.15 | 0.15 | 93 | 1006.7 |
| 20260506175016 | 62 | 180 | 3.5 | 12.2 | 0.10 | 0.15 | 0.15 | 94 | 1006.7 |
| 20260506174516 | 62 | 158 | 3.5 | 8.7 | 0.09 | 0.14 | 0.14 | 94 | 1006.7 |
| 20260506174016 | 62 | 203 | 0.9 | 5.2 | 0.09 | 0.14 | 0.14 | 94 | 1006.8 |
| 20260506173516 | 62 | 225 | 1.7 | 5.2 | 0.09 | 0.13 | 0.13 | 93 | 1006.8 |
| 20260506173016 | 62 | 180 | 1.7 | 6.1 | 0.08 | 0.12 | 0.12 | 93 | 1006.8 |
| 20260506172516 | 62 | 180 | 1.7 | 7.8 | 0.06 | 0.09 | 0.09 | 93 | 1006.8 |
| 20260506172016 | 62 | 180 | 1.7 | 6.1 | 0.05 | 0.07 | 0.07 | 93 | 1006.8 |
| 20260506171516 | 63 | 135 | 0.9 | 5.2 | 0.04 | 0.06 | 0.06 | 93 | 1006.8 |
| 20260506171017 | 63 | 0.0 | 1.7 | 0.04 | 0.06 | 0.06 | 93 | 1006.7 | |
| 20260506170516 | 63 | 0.0 | 2.6 | 0.04 | 0.06 | 0.06 | 93 | 1006.8 | |
| 20260506170016 | 63 | 0.0 | 3.5 | 0.04 | 0.06 | 0.06 | 93 | 1006.8 | |
| 20260506165516 | 63 | 158 | 0.9 | 4.3 | 0.05 | 0.06 | 0.06 | 93 | 1006.8 |
| 20260506165016 | 63 | 135 | 0.9 | 2.6 | 0.04 | 0.05 | 0.05 | 93 | 1006.8 |
| 20260506164516 | 63 | 135 | 0.9 | 5.2 | 0.05 | 0.05 | 0.05 | 93 | 1006.9 |
| 20260506164016 | 63 | 0.0 | 1.7 | 0.05 | 0.05 | 0.05 | 93 | 1006.9 | |
| 20260506163516 | 63 | 0.0 | 1.7 | 0.04 | 0.04 | 0.04 | 92 | 1007.0 | |
| 20260506163016 | 63 | 0.0 | 1.7 | 0.04 | 0.04 | 0.04 | 92 | 1007.1 | |
| 20260506162516 | 63 | 158 | 0.9 | 3.5 | 0.03 | 0.03 | 0.03 | 91 | 1007.5 |
| 20260506162016 | 63 | 158 | 0.9 | 2.6 | 0.02 | 0.02 | 0.02 | 91 | 1007.7 |
| 20260506161516 | 63 | 0.0 | 1.7 | 0.02 | 0.02 | 0.02 | 90 | 1007.7 | |
| 20260506161016 | 63 | 180 | 0.9 | 3.5 | 0.02 | 0.02 | 0.02 | 90 | 1007.8 |
| 20260506160516 | 64 | 0.0 | 0.9 | 0.02 | 0.02 | 0.02 | 89 | 1007.7 | |
| 20260506160016 | 64 | 0.0 | 2.6 | 0.02 | 0.02 | 0.02 | 89 | 1007.8 | |
| 20260506155516 | 64 | 0.0 | 2.6 | 0.01 | 0.01 | 0.01 | 88 | 1007.8 | |
| 20260506155016 | 64 | 203 | 0.9 | 4.3 | 0.01 | 0.01 | 0.01 | 87 | 1007.8 |
| 20260506154516 | 64 | 158 | 0.9 | 4.3 | 0.00 | 0.00 | 0.00 | 86 | 1007.8 |
| 20260506154016 | 65 | 158 | 1.7 | 6.1 | 0.00 | 0.00 | 0.00 | 86 | 1007.9 |
| 20260506153516 | 65 | 180 | 0.9 | 4.3 | 0.00 | 0.00 | 0.00 | 85 | 1007.8 |
| 20260506153016 | 65 | 180 | 0.9 | 3.5 | 0.00 | 0.00 | 0.00 | 84 | 1007.8 |
| 20260506152516 | 66 | 0.0 | 3.5 | 0.00 | 0.00 | 0.00 | 84 | 1007.8 | |
| 20260506152016 | 66 | 180 | 0.9 | 4.3 | 0.00 | 0.00 | 0.00 | 82 | 1008.0 |
| 20260506151516 | 66 | 180 | 1.7 | 5.2 | 0.00 | 0.00 | 0.00 | 81 | 1008.1 |
| 20260506151016 | 66 | 158 | 0.9 | 4.3 | 0.00 | 0.00 | 0.00 | 80 | 1008.1 |
| 20260506150516 | 66 | 180 | 2.6 | 8.7 | 0.00 | 0.00 | 0.00 | 79 | 1008.1 |
| 20260506150016 | 66 | 180 | 2.6 | 6.1 | 0.00 | 0.00 | 0.00 | 78 | 1008.3 |
| 20260506145516 | 67 | 180 | 0.9 | 6.1 | 0.00 | 0.00 | 0.00 | 78 | 1008.1 |
| 20260506145016 | 67 | 180 | 2.6 | 8.7 | 0.00 | 0.00 | 0.00 | 77 | 1008.1 |
| 20260506144516 | 67 | 180 | 1.7 | 4.3 | 0.00 | 0.00 | 0.00 | 77 | 1008.1 |
| 20260506144016 | 67 | 180 | 2.6 | 8.7 | 0.00 | 0.00 | 0.00 | 76 | 1008.1 |
| 20260506143516 | 67 | 203 | 2.6 | 7.0 | 0.00 | 0.00 | 0.00 | 75 | 1008.1 |
| 20260506143016 | 67 | 180 | 1.7 | 5.2 | 0.00 | 0.00 | 0.00 | 76 | 1008.1 |
| 20260506142516 | 67 | 180 | 2.6 | 8.7 | 0.00 | 0.00 | 0.00 | 75 | 1008.1 |
| 20260506142016 | 67 | 180 | 3.5 | 12.2 | 0.00 | 0.00 | 0.00 | 75 | 1008.2 |
| 20260506141516 | 67 | 203 | 2.6 | 7.0 | 0.00 | 0.00 | 0.00 | 75 | 1008.2 |
| 20260506141016 | 67 | 203 | 4.3 | 12.2 | 0.00 | 0.00 | 0.00 | 75 | 1008.3 |
| 20260506140516 | 67 | 180 | 2.6 | 8.7 | 0.00 | 0.00 | 0.00 | 76 | 1008.4 |
| 20260506140016 | 67 | 203 | 3.5 | 8.7 | 0.00 | 0.00 | 0.00 | 75 | 1008.4 |
| 20260506135516 | 67 | 180 | 3.5 | 8.7 | 0.00 | 0.00 | 0.00 | 76 | 1008.4 |
| 20260506135015 | 67 | 180 | 4.3 | 11.3 | 0.00 | 0.00 | 0.00 | 76 | 1008.4 |
| 20260506134515 | 67 | 203 | 3.5 | 11.3 | 0.00 | 0.00 | 0.00 | 76 | 1008.3 |
| 20260506134017 | 67 | 203 | 4.3 | 9.6 | 0.00 | 0.00 | 0.00 | 76 | 1008.2 |
| 20260506133516 | 67 | 203 | 1.7 | 6.1 | 0.00 | 0.00 | 0.00 | 76 | 1008.1 |
| 20260506133016 | 67 | 203 | 4.3 | 11.3 | 0.00 | 0.00 | 0.00 | 76 | 1008.0 |
| 20260506132516 | 67 | 203 | 4.3 | 13.9 | 0.00 | 0.00 | 0.00 | 76 | 1008.2 |
| 20260506132016 | 67 | 180 | 2.6 | 7.8 | 0.00 | 0.00 | 0.00 | 76 | 1008.1 |
| 20260506131515 | 67 | 225 | 3.5 | 13.0 | 0.00 | 0.00 | 0.00 | 76 | 1007.9 |
| 20260506131015 | 67 | 203 | 2.6 | 9.6 | 0.00 | 0.00 | 0.00 | 76 | 1007.9 |
| 20260506130515 | 66 | 203 | 4.3 | 8.7 | 0.00 | 0.00 | 0.00 | 76 | 1007.8 |
| 20260506130016 | 66 | 203 | 4.3 | 10.4 | 0.00 | 0.00 | 0.00 | 76 | 1007.8 |
| 20260506125515 | 66 | 203 | 3.5 | 8.7 | 0.00 | 0.00 | 0.00 | 77 | 1007.9 |
| 20260506125015 | 66 | 180 | 3.5 | 7.8 | 0.00 | 0.00 | 0.00 | 77 | 1007.8 |
| 20260506124515 | 66 | 203 | 3.5 | 11.3 | 0.00 | 0.00 | 0.00 | 77 | 1007.8 |
| 20260506124015 | 66 | 180 | 3.5 | 10.4 | 0.00 | 0.00 | 0.00 | 77 | 1007.8 |
| 20260506123515 | 66 | 180 | 2.6 | 7.0 | 0.00 | 0.00 | 0.00 | 77 | 1008.1 |
| 20260506123015 | 66 | 158 | 2.6 | 11.3 | 0.00 | 0.00 | 0.00 | 78 | 1008.2 |
| 20260506122515 | 66 | 180 | 2.6 | 6.1 | 0.00 | 0.00 | 0.00 | 78 | 1008.1 |
| 20260506122015 | 66 | 180 | 2.6 | 5.2 | 0.00 | 0.00 | 0.00 | 78 | 1008.1 |
| 20260506121515 | 66 | 158 | 2.6 | 10.4 | 0.00 | 0.00 | 0.00 | 78 | 1008.1 |
| 20260506121015 | 66 | 180 | 3.5 | 8.7 | 0.00 | 0.00 | 0.00 | 78 | 1008.0 |
| 20260506120515 | 66 | 203 | 4.3 | 10.4 | 0.00 | 0.00 | 0.00 | 78 | 1008.0 |
| 20260506120015 | 66 | 180 | 2.6 | 8.7 | 0.00 | 0.00 | 0.00 | 78 | 1008.1 |
| 20260506115515 | 65 | 180 | 2.6 | 7.8 | 0.00 | 0.00 | 0.00 | 78 | 1008.2 |
| 20260506115015 | 65 | 180 | 2.6 | 7.0 | 0.00 | 0.00 | 0.00 | 78 | 1008.3 |
| 20260506114515 | 65 | 180 | 3.5 | 10.4 | 0.00 | 0.00 | 0.00 | 78 | 1008.2 |
| 20260506114016 | 65 | 180 | 2.6 | 8.7 | 0.00 | 0.00 | 0.00 | 78 | 1008.2 |
| 20260506113515 | 65 | 180 | 3.5 | 7.8 | 0.00 | 0.00 | 0.00 | 79 | 1008.0 |
| 20260506113015 | 65 | 203 | 1.7 | 7.0 | 0.00 | 0.00 | 0.00 | 79 | 1007.9 |
| 20260506112515 | 65 | 180 | 1.7 | 7.0 | 0.00 | 0.00 | 0.00 | 79 | 1008.0 |
| 20260506112015 | 65 | 180 | 1.7 | 6.1 | 0.00 | 0.00 | 0.00 | 79 | 1008.0 |
| 20260506111515 | 65 | 203 | 2.6 | 8.7 | 0.00 | 0.00 | 0.00 | 79 | 1008.0 |
| 20260506111015 | 65 | 180 | 2.6 | 6.1 | 0.00 | 0.00 | 0.00 | 79 | 1008.0 |
| 20260506110516 | 65 | 180 | 2.6 | 7.8 | 0.00 | 0.00 | 0.00 | 79 | 1007.9 |
| 20260506110015 | 65 | 203 | 2.6 | 7.8 | 0.00 | 0.00 | 0.00 | 79 | 1008.0 |
| 20260506105515 | 65 | 180 | 2.6 | 8.7 | 0.00 | 0.00 | 0.00 | 79 | 1008.0 |
| 20260506105015 | 65 | 158 | 3.5 | 8.7 | 0.00 | 0.00 | 0.00 | 79 | 1008.0 |
| 20260506104515 | 65 | 180 | 2.6 | 7.8 | 0.00 | 0.00 | 0.00 | 79 | 1008.0 |
| 20260506104015 | 65 | 203 | 2.6 | 7.8 | 0.00 | 0.00 | 0.00 | 79 | 1008.0 |
| 20260506103515 | 65 | 158 | 2.6 | 7.8 | 0.00 | 0.00 | 0.00 | 79 | 1007.9 |
| 20260506103015 | 65 | 180 | 2.6 | 9.6 | 0.00 | 0.00 | 0.00 | 79 | 1007.9 |
| 20260506102515 | 65 | 180 | 3.5 | 14.8 | 0.00 | 0.00 | 0.00 | 78 | 1007.9 |
| 20260506102015 | 65 | 180 | 1.7 | 4.3 | 0.00 | 0.00 | 0.00 | 78 | 1007.9 |
| 20260506101515 | 65 | 180 | 1.7 | 5.2 | 0.00 | 0.00 | 0.00 | 78 | 1007.8 |
| 20260506101015 | 65 | 203 | 2.6 | 7.8 | 0.00 | 0.00 | 0.00 | 78 | 1007.9 |
| 20260506100515 | 65 | 158 | 1.7 | 5.2 | 0.00 | 0.00 | 0.00 | 78 | 1007.7 |
| 20260506100015 | 65 | 180 | 2.6 | 6.1 | 0.00 | 0.00 | 0.00 | 78 | 1007.7 |
| 20260506095515 | 65 | 180 | 4.3 | 10.4 | 0.00 | 0.00 | 0.00 | 78 | 1007.8 |
| 20260506095015 | 64 | 203 | 2.6 | 7.0 | 0.00 | 0.00 | 0.00 | 77 | 1007.6 |
| 20260506094515 | 65 | 180 | 1.7 | 4.3 | 0.00 | 0.00 | 0.00 | 77 | 1007.6 |
| 20260506094015 | 65 | 158 | 2.6 | 5.2 | 0.00 | 0.00 | 0.00 | 77 | 1007.9 |
| 20260506093515 | 65 | 203 | 3.5 | 8.7 | 0.00 | 0.00 | 0.00 | 76 | 1008.0 |
| 20260506093015 | 65 | 180 | 2.6 | 6.1 | 0.00 | 0.00 | 0.00 | 76 | 1008.1 |
| 20260506092515 | 65 | 180 | 2.6 | 7.0 | 0.00 | 0.00 | 0.00 | 76 | 1008.0 |
| 20260506092015 | 65 | 180 | 2.6 | 7.0 | 0.00 | 0.00 | 0.00 | 75 | 1008.0 |
| 20260506091515 | 65 | 180 | 1.7 | 7.0 | 0.00 | 0.00 | 0.00 | 75 | 1007.9 |
| 20260506091015 | 65 | 180 | 2.6 | 9.6 | 0.00 | 0.00 | 0.00 | 74 | 1007.8 |
| 20260506090515 | 65 | 158 | 1.7 | 7.0 | 0.00 | 0.00 | 0.00 | 74 | 1007.8 |
| 20260506090015 | 65 | 180 | 1.7 | 7.8 | 0.00 | 0.00 | 0.00 | 74 | 1007.8 |
| 20260506085515 | 65 | 180 | 1.7 | 6.1 | 0.00 | 0.00 | 0.00 | 73 | 1007.9 |
| 20260506085015 | 65 | 180 | 2.6 | 9.6 | 0.00 | 0.00 | 0.00 | 73 | 1007.9 |
| 20260506084515 | 65 | 180 | 2.6 | 6.1 | 0.00 | 0.00 | 0.00 | 73 | 1008.0 |
| 20260506084015 | 65 | 180 | 1.7 | 5.2 | 0.00 | 0.00 | 0.00 | 72 | 1007.9 |
| 20260506083515 | 65 | 180 | 2.6 | 10.4 | 0.00 | 0.00 | 0.00 | 72 | 1008.0 |
| 20260506083015 | 65 | 180 | 1.7 | 5.2 | 0.00 | 0.00 | 0.00 | 71 | 1008.1 |
| 20260506082515 | 65 | 180 | 1.7 | 6.1 | 0.00 | 0.00 | 0.00 | 71 | 1008.0 |
| 20260506082015 | 66 | 180 | 1.7 | 5.2 | 0.00 | 0.00 | 0.00 | 70 | 1008.1 |
| 20260506081515 | 66 | 180 | 0.9 | 4.3 | 0.00 | 0.00 | 0.00 | 69 | 1008.1 |
| 20260506081015 | 66 | 180 | 1.7 | 5.2 | 0.00 | 0.00 | 0.00 | 69 | 1008.2 |
| 20260506080515 | 67 | 158 | 0.9 | 6.1 | 0.00 | 0.00 | 0.00 | 68 | 1008.2 |
| 20260506073515 | 68 | 135 | 1.7 | 6.1 | 0.00 | 0.00 | 0.00 | 65 | 1008.3 |
| 20260506073015 | 68 | 180 | 2.6 | 6.1 | 0.00 | 0.00 | 0.00 | 65 | 1008.3 |
| 20260506072515 | 68 | 180 | 2.6 | 7.0 | 0.00 | 0.00 | 0.00 | 65 | 1008.2 |
| 20260506072015 | 68 | 203 | 3.5 | 10.4 | 0.00 | 0.00 | 0.00 | 65 | 1008.2 |
| 20260506071515 | 68 | 225 | 1.7 | 7.0 | 0.00 | 0.00 | 0.00 | 65 | 1008.2 |
| 20260506071015 | 68 | 203 | 3.5 | 7.8 | 0.00 | 0.00 | 0.00 | 64 | 1008.2 |
| 20260506070515 | 68 | 203 | 1.7 | 6.1 | 0.00 | 0.00 | 0.00 | 64 | 1008.3 |
| 20260506062517 | 68 | 158 | 1.7 | 8.7 | 0.00 | 0.00 | 0.00 | 64 | 1008.6 |
| 20260506062017 | 68 | 180 | 1.7 | 6.1 | 0.00 | 0.00 | 0.00 | 64 | 1008.7 |
| 20260506061517 | 68 | 203 | 1.7 | 6.1 | 0.00 | 0.00 | 0.00 | 64 | 1008.7 |
| 20260506061017 | 68 | 270 | 0.9 | 6.1 | 0.00 | 0.00 | 0.00 | 63 | 1008.6 |
| 20260506060517 | 68 | 180 | 1.7 | 5.2 | 0.00 | 0.00 | 0.00 | 63 | 1008.6 |
| 20260506051017 | 69 | 180 | 1.7 | 8.7 | 0.00 | 0.00 | 0.00 | 62 | 1009.0 |
| 20260506050517 | 70 | 203 | 2.6 | 8.7 | 0.00 | 0.00 | 0.00 | 62 | 1009.1 |
| 20260506045016 | 70 | 203 | 1.7 | 7.8 | 0.00 | 0.00 | 0.00 | 60 | 1009.1 |
| 20260506044517 | 70 | 158 | 1.7 | 7.8 | 0.00 | 0.00 | 0.00 | 60 | 1009.1 |
| 20260506044016 | 70 | 158 | 3.5 | 8.7 | 0.00 | 0.00 | 0.00 | 60 | 1009.1 |
| 20260506043517 | 71 | 158 | 3.5 | 13.0 | 0.00 | 0.00 | 0.00 | 59 | 1009.1 |
| 20260506043016 | 71 | 203 | 3.5 | 13.0 | 0.00 | 0.00 | 0.00 | 58 | 1009.2 |
| 20260506042517 | 71 | 180 | 3.5 | 9.6 | 0.00 | 0.00 | 0.00 | 57 | 1009.1 |
| 20260506042017 | 71 | 180 | 3.5 | 10.4 | 0.00 | 0.00 | 0.00 | 57 | 1009.1 |
| 20260506041516 | 71 | 180 | 2.6 | 12.2 | 0.00 | 0.00 | 0.00 | 56 | 1009.0 |
| 20260506041016 | 71 | 203 | 4.3 | 9.6 | 0.00 | 0.00 | 0.00 | 55 | 1009.0 |
| 20260506040516 | 71 | 180 | 2.6 | 9.6 | 0.00 | 0.00 | 0.00 | 55 | 1008.9 |
| 20260506040016 | 71 | 180 | 2.6 | 8.7 | 0.00 | 0.00 | 0.00 | 55 | 1008.8 |
| 20260506035516 | 71 | 180 | 0.9 | 4.3 | 0.00 | 0.00 | 0.00 | 54 | 1008.8 |
| 20260506035015 | 71 | 180 | 1.7 | 6.1 | 0.00 | 0.00 | 0.00 | 54 | 1008.8 |
| 20260506034515 | 72 | 180 | 0.9 | 4.3 | 0.00 | 0.00 | 0.00 | 54 | 1008.8 |
| 20260506034015 | 72 | 158 | 1.7 | 5.2 | 0.00 | 0.00 | 0.00 | 53 | 1008.8 |
| 20260506033515 | 72 | 203 | 2.6 | 6.1 | 0.00 | 0.00 | 0.00 | 53 | 1008.8 |
| 20260506033015 | 72 | 180 | 3.5 | 9.6 | 0.00 | 0.00 | 0.00 | 53 | 1008.7 |
| 20260506032515 | 72 | 180 | 1.7 | 7.0 | 0.00 | 0.00 | 0.00 | 53 | 1008.7 |
| 20260506032015 | 72 | 135 | 0.9 | 3.5 | 0.00 | 0.00 | 0.00 | 53 | 1008.7 |
| 20260506031515 | 72 | 158 | 1.7 | 4.3 | 0.00 | 0.00 | 0.00 | 52 | 1008.7 |
| 20260506031015 | 72 | 180 | 1.7 | 7.8 | 0.00 | 0.00 | 0.00 | 52 | 1008.8 |
| 20260506030515 | 73 | 203 | 1.7 | 5.2 | 0.00 | 0.00 | 0.00 | 52 | 1008.8 |
| 20260506030015 | 73 | 203 | 2.6 | 9.6 | 0.00 | 0.00 | 0.00 | 51 | 1008.8 |
| 20260506025515 | 73 | 203 | 2.6 | 8.7 | 0.00 | 0.00 | 0.00 | 51 | 1008.8 |
| 20260506025016 | 73 | 180 | 2.6 | 8.7 | 0.00 | 0.00 | 0.00 | 51 | 1008.7 |
| 20260506024515 | 73 | 180 | 3.5 | 7.8 | 0.00 | 0.00 | 0.00 | 51 | 1008.7 |
| 20260506024015 | 73 | 180 | 1.7 | 6.1 | 0.00 | 0.00 | 0.00 | 51 | 1008.7 |
| 20260506023515 | 73 | 203 | 3.5 | 9.6 | 0.00 | 0.00 | 0.00 | 50 | 1008.7 |
| 20260506023015 | 74 | 225 | 3.5 | 8.7 | 0.00 | 0.00 | 0.00 | 50 | 1008.7 |
| 20260506022515 | 74 | 203 | 4.3 | 11.3 | 0.00 | 0.00 | 0.00 | 49 | 1008.7 |
| 20260506022015 | 74 | 180 | 3.5 | 9.6 | 0.00 | 0.00 | 0.00 | 49 | 1008.5 |
| 20260506021515 | 74 | 203 | 4.3 | 10.4 | 0.00 | 0.00 | 0.00 | 48 | 1008.5 |
| 20260506021015 | 74 | 225 | 3.5 | 12.2 | 0.00 | 0.00 | 0.00 | 49 | 1008.5 |
| 20260506020515 | 74 | 180 | 2.6 | 6.1 | 0.00 | 0.00 | 0.00 | 48 | 1008.4 |
| 20260506020015 | 74 | 158 | 2.6 | 10.4 | 0.00 | 0.00 | 0.00 | 47 | 1008.5 |
| 20260506015515 | 74 | 203 | 3.5 | 10.4 | 0.00 | 0.00 | 0.00 | 46 | 1008.4 |
| 20260506015015 | 74 | 180 | 2.6 | 7.8 | 0.00 | 0.00 | 0.00 | 46 | 1008.4 |
| 20260506014515 | 74 | 180 | 2.6 | 8.7 | 0.00 | 0.00 | 0.00 | 46 | 1008.4 |
| 20260506014015 | 74 | 180 | 2.6 | 7.0 | 0.00 | 0.00 | 0.00 | 46 | 1008.4 |
| 20260506013515 | 74 | 203 | 1.7 | 5.2 | 0.00 | 0.00 | 0.00 | 46 | 1008.3 |
| 20260506013015 | 75 | 180 | 2.6 | 8.7 | 0.00 | 0.00 | 0.00 | 45 | 1008.2 |
| 20260506012515 | 75 | 180 | 3.5 | 12.2 | 0.00 | 0.00 | 0.00 | 44 | 1008.2 |
| 20260506012015 | 75 | 180 | 2.6 | 10.4 | 0.00 | 0.00 | 0.00 | 44 | 1008.2 |
| 20260506011515 | 75 | 203 | 4.3 | 11.3 | 0.00 | 0.00 | 0.00 | 44 | 1008.0 |
| 20260506011015 | 75 | 203 | 2.6 | 12.2 | 0.00 | 0.00 | 0.00 | 45 | 1008.0 |
| 20260506010515 | 75 | 203 | 3.5 | 7.0 | 0.00 | 0.00 | 0.00 | 44 | 1007.9 |
| 20260506010015 | 75 | 203 | 2.6 | 7.0 | 0.00 | 0.00 | 0.00 | 44 | 1007.7 |
| 20260506005515 | 74 | 180 | 3.5 | 11.3 | 0.00 | 0.00 | 0.00 | 44 | 1007.7 |
| 20260506005015 | 74 | 180 | 1.7 | 7.0 | 0.00 | 0.00 | 0.00 | 45 | 1007.7 |
| 20260506004515 | 74 | 180 | 1.7 | 5.2 | 0.00 | 0.00 | 0.00 | 45 | 1007.7 |
| 20260506004015 | 74 | 180 | 2.6 | 5.2 | 0.00 | 0.00 | 0.00 | 44 | 1007.6 |
| 20260506003515 | 75 | 180 | 0.9 | 4.3 | 0.00 | 0.00 | 0.00 | 45 | 1007.6 |
| 20260506003015 | 75 | 180 | 2.6 | 9.6 | 0.00 | 0.00 | 0.00 | 45 | 1007.6 |
| 20260506002515 | 75 | 180 | 1.7 | 7.0 | 0.00 | 0.00 | 0.00 | 46 | 1007.7 |
| 20260506002015 | 75 | 158 | 1.7 | 5.2 | 0.00 | 0.00 | 0.00 | 44 | 1007.4 |
| 20260506001515 | 75 | 180 | 1.7 | 7.0 | 0.00 | 0.00 | 0.00 | 44 | 1007.5 |
| 20260506001015 | 75 | 180 | 3.5 | 7.0 | 0.00 | 0.00 | 0.00 | 43 | 1007.3 |
| 20260506000515 | 75 | 203 | 2.6 | 8.7 | 0.00 | 0.00 | 0.00 | 43 | 1007.3 |
| 20260506000015 | 76 | 180 | 0.9 | 3.5 | 0.00 | 0.00 | 0.00 | 43 | 1007.4 |
| 20260505235515 | 76 | 203 | 1.7 | 5.2 | 0.00 | 0.00 | 0.00 | 43 | 1007.3 |
| 20260505235015 | 76 | 203 | 1.7 | 7.0 | 0.00 | 0.00 | 0.00 | 42 | 1007.3 |
| 20260505234515 | 77 | 180 | 2.6 | 7.0 | 0.00 | 0.00 | 0.00 | 42 | 1007.2 |
| 20260505234015 | 77 | 203 | 4.3 | 9.6 | 0.00 | 0.00 | 0.00 | 41 | 1007.2 |
| 20260505233515 | 77 | 203 | 3.5 | 12.2 | 0.00 | 0.00 | 0.00 | 41 | 1007.1 |
| 20260505233015 | 77 | 180 | 3.5 | 11.3 | 0.00 | 0.00 | 0.00 | 41 | 1007.0 |
| 20260505232515 | 77 | 203 | 5.2 | 11.3 | 0.00 | 0.00 | 0.00 | 41 | 1006.9 |
| 20260505232015 | 78 | 203 | 5.2 | 12.2 | 0.00 | 0.00 | 0.00 | 41 | 1006.8 |
| 20260505231515 | 78 | 203 | 5.2 | 14.8 | 0.00 | 0.00 | 0.00 | 41 | 1006.8 |
| 20260505231015 | 78 | 203 | 5.2 | 13.0 | 0.00 | 0.00 | 0.00 | 40 | 1006.6 |
| 20260505230515 | 78 | 203 | 4.3 | 11.3 | 0.00 | 0.00 | 0.00 | 40 | 1006.7 |
| 20260505230015 | 78 | 180 | 4.3 | 12.2 | 0.00 | 0.00 | 0.00 | 40 | 1006.6 |
| 20260505225515 | 78 | 203 | 5.2 | 16.5 | 0.00 | 0.00 | 0.00 | 40 | 1006.6 |
| 20260505225015 | 79 | 180 | 6.1 | 13.9 | 0.00 | 0.00 | 0.00 | 39 | 1006.5 |
| 20260505224515 | 79 | 203 | 7.0 | 13.9 | 0.00 | 0.00 | 0.00 | 39 | 1006.4 |
| 20260505224015 | 79 | 203 | 6.1 | 15.6 | 0.00 | 0.00 | 0.00 | 39 | 1006.3 |
| 20260505223515 | 79 | 203 | 4.3 | 12.2 | 0.00 | 0.00 | 0.00 | 38 | 1006.3 |
| 20260505223015 | 79 | 203 | 5.2 | 14.8 | 0.00 | 0.00 | 0.00 | 38 | 1006.2 |
| 20260505222517 | 79 | 203 | 3.5 | 10.4 | 0.00 | 0.00 | 0.00 | 39 | 1006.2 |
| 20260505222017 | 80 | 203 | 6.1 | 20.9 | 0.00 | 0.00 | 0.00 | 38 | 1006.2 |
| 20260505221517 | 80 | 203 | 7.0 | 16.5 | 0.00 | 0.00 | 0.00 | 38 | 1006.1 |
| 20260505221017 | 80 | 203 | 6.1 | 13.9 | 0.00 | 0.00 | 0.00 | 36 | 1006.1 |
| 20260505220517 | 81 | 203 | 6.1 | 15.6 | 0.00 | 0.00 | 0.00 | 36 | 1006.1 |
| 20260505220017 | 82 | 225 | 4.3 | 8.7 | 0.00 | 0.00 | 0.00 | 35 | 1006.0 |